Time,TemperatureF,DewpointF,PressureIn,WindDirection,WindDirectionDegrees,WindSpeedMPH,WindSpeedGustMPH,Humidity,HourlyPrecipIn,Conditions,Clouds,dailyrainin,SoftwareType,DateUTC
2013-02-21 00:02:00,20.0,18.0,30.16,West,264,5.0,11.0,92,-99.99,,,-99.99,,2013-02-21 05:02:00,
2013-02-21 00:12:00,20.0,18.0,30.16,West,264,5.0,11.0,92,-99.99,,,-99.99,,2013-02-21 05:12:00,
2013-02-21 00:22:00,20.0,18.0,30.16,WNW,300,5.0,12.0,90,-99.99,,,-99.99,,2013-02-21 05:22:00,
2013-02-21 00:35:00,20.0,18.0,30.16,NNW,343,4.0,10.0,91,-99.99,,,-99.99,,2013-02-21 05:35:00,
2013-02-21 00:44:00,20.0,18.0,30.16,NNW,343,4.0,10.0,91,-99.99,,,-99.99,,2013-02-21 05:44:00,
2013-02-21 01:00:00,21.0,19.0,30.16,WNW,302,2.0,7.0,92,-99.99,,,-99.99,,2013-02-21 06:00:00,
2013-02-21 01:11:00,20.0,18.0,30.16,North,11,2.0,8.0,91,-99.99,,,-99.99,,2013-02-21 06:11:00,
2013-02-21 01:21:00,20.0,18.0,30.16,North,11,2.0,8.0,91,-99.99,,,-99.99,,2013-02-21 06:21:00,
2013-02-21 01:31:00,20.0,18.0,30.16,West,277,2.0,8.0,91,-99.99,,,-99.99,,2013-02-21 06:31:00,
2013-02-21 01:41:00,21.0,19.0,30.16,West,270,1.0,5.0,91,-99.99,,,-99.99,,2013-02-21 06:41:00,
2013-02-21 01:51:00,21.0,19.0,30.16,West,270,1.0,5.0,91,-99.99,,,-99.99,,2013-02-21 06:51:00,
2013-02-21 02:01:00,21.0,19.0,30.17,NW,305,3.0,8.0,93,-99.99,,,-99.99,,2013-02-21 07:01:00,
2013-02-21 02:11:00,21.0,20.0,30.17,NW,325,1.0,4.0,94,-99.99,,,-99.99,,2013-02-21 07:11:00,
2013-02-21 02:21:00,21.0,20.0,30.17,NW,325,1.0,4.0,94,-99.99,,,-99.99,,2013-02-21 07:21:00,
2013-02-21 02:32:00,20.0,19.0,30.17,WNW,294,1.0,6.0,95,-99.99,,,-99.99,,2013-02-21 07:32:00,
2013-02-21 02:42:00,21.0,20.0,30.17,NW,305,0.0,3.0,95,-99.99,,,-99.99,,2013-02-21 07:42:00,
2013-02-21 02:52:00,21.0,20.0,30.17,NW,305,0.0,3.0,95,-99.99,,,-99.99,,2013-02-21 07:52:00,
2013-02-21 03:01:00,20.0,19.0,30.17,West,276,1.0,5.0,95,-99.99,,,-99.99,,2013-02-21 08:01:00,
2013-02-21 03:11:00,20.0,19.0,30.17,North,3,4.0,14.0,95,-99.99,,,-99.99,,2013-02-21 08:11:00,
2013-02-21 03:21:00,20.0,19.0,30.17,North,3,4.0,14.0,95,-99.99,,,-99.99,,2013-02-21 08:21:00,
2013-02-21 03:32:00,20.0,19.0,30.17,NNW,329,4.0,10.0,94,-99.99,,,-99.99,,2013-02-21 08:32:00,
2013-02-21 03:42:00,20.0,19.0,30.17,NNW,329,4.0,10.0,94,-99.99,,,-99.99,,2013-02-21 08:42:00,
2013-02-21 03:52:00,20.0,18.0,30.17,West,260,6.0,13.0,93,-99.99,,,-99.99,,2013-02-21 08:52:00,
2013-02-21 04:01:00,20.0,18.0,30.17,WNW,294,3.0,8.0,90,-99.99,,,-99.99,,2013-02-21 09:01:00,
2013-02-21 04:11:00,20.0,18.0,30.17,WNW,294,3.0,8.0,90,-99.99,,,-99.99,,2013-02-21 09:11:00,
2013-02-21 04:22:00,20.0,17.0,30.17,WNW,291,4.0,9.0,89,-99.99,,,-99.99,,2013-02-21 09:22:00,
2013-02-21 04:32:00,20.0,17.0,30.17,WNW,284,3.0,9.0,88,-99.99,,,-99.99,,2013-02-21 09:32:00,
2013-02-21 04:41:00,20.0,16.0,30.17,WNW,283,5.0,9.0,86,-99.99,,,-99.99,,2013-02-21 09:41:00,
2013-02-21 04:52:00,20.0,16.0,30.17,WNW,283,5.0,9.0,86,-99.99,,,-99.99,,2013-02-21 09:52:00,
2013-02-21 05:01:00,20.0,16.0,30.17,West,269,4.0,10.0,86,-99.99,,,-99.99,,2013-02-21 10:01:00,
2013-02-21 05:11:00,20.0,16.0,30.17,West,269,4.0,10.0,86,-99.99,,,-99.99,,2013-02-21 10:11:00,
2013-02-21 05:21:00,20.0,17.0,30.18,WNW,285,4.0,8.0,87,-99.99,,,-99.99,,2013-02-21 10:21:00,
2013-02-21 05:31:00,20.0,17.0,30.19,North,356,1.0,7.0,88,-99.99,,,-99.99,,2013-02-21 10:31:00,
2013-02-21 05:41:00,20.0,17.0,30.19,North,356,1.0,7.0,88,-99.99,,,-99.99,,2013-02-21 10:41:00,
2013-02-21 05:51:00,20.0,17.0,30.19,NW,308,2.0,9.0,87,-99.99,,,-99.99,,2013-02-21 10:51:00,
2013-02-21 06:01:00,20.0,17.0,30.20,West,277,3.0,8.0,87,-99.99,,,-99.99,,2013-02-21 11:01:00,
2013-02-21 06:11:00,20.0,17.0,30.20,West,277,3.0,8.0,87,-99.99,,,-99.99,,2013-02-21 11:11:00,
2013-02-21 06:21:00,20.0,17.0,30.20,West,274,3.0,8.0,87,-99.99,,,-99.99,,2013-02-21 11:21:00,
2013-02-21 06:31:00,20.0,17.0,30.21,West,278,2.0,6.0,87,-99.99,,,-99.99,,2013-02-21 11:31:00,
2013-02-21 06:41:00,20.0,17.0,30.21,West,278,2.0,6.0,87,-99.99,,,-99.99,,2013-02-21 11:41:00,
2013-02-21 06:52:00,20.0,17.0,30.21,West,262,2.0,7.0,87,-99.99,,,-99.99,,2013-02-21 11:52:00,
2013-02-21 07:01:00,20.0,17.0,30.21,WNW,283,3.0,9.0,88,-99.99,,,-99.99,,2013-02-21 12:01:00,
2013-02-21 07:11:00,20.0,17.0,30.22,West,281,4.0,9.0,88,-99.99,,,-99.99,,2013-02-21 12:11:00,
2013-02-21 07:21:00,20.0,17.0,30.22,West,281,4.0,9.0,88,-99.99,,,-99.99,,2013-02-21 12:21:00,
2013-02-21 07:32:00,20.0,18.0,30.22,West,274,2.0,6.0,90,-99.99,,,-99.99,,2013-02-21 12:32:00,
2013-02-21 07:42:00,20.0,18.0,30.22,West,274,2.0,6.0,90,-99.99,,,-99.99,,2013-02-21 12:42:00,
2013-02-21 07:52:00,20.0,18.0,30.22,West,274,2.0,6.0,90,-99.99,,,-99.99,,2013-02-21 12:52:00,
2013-02-21 08:02:00,20.0,18.0,30.23,WSW,255,4.0,8.0,91,-99.99,,,-99.99,,2013-02-21 13:02:00,
2013-02-21 08:12:00,20.0,18.0,30.24,WSW,249,5.0,11.0,92,-99.99,,,-99.99,,2013-02-21 13:12:00,
2013-02-21 08:22:00,20.0,18.0,30.24,WSW,249,5.0,11.0,92,-99.99,,,-99.99,,2013-02-21 13:22:00,
2013-02-21 08:32:00,21.0,19.0,30.25,WNW,284,2.0,7.0,92,-99.99,,,-99.99,,2013-02-21 13:32:00,
2013-02-21 08:41:00,21.0,19.0,30.25,WNW,284,3.0,8.0,92,-99.99,,,-99.99,,2013-02-21 13:41:00,
2013-02-21 08:52:00,21.0,19.0,30.25,WNW,284,3.0,8.0,92,-99.99,,,-99.99,,2013-02-21 13:52:00,
2013-02-21 09:02:00,22.0,20.0,30.26,NW,304,2.0,8.0,93,-99.99,,,-99.99,,2013-02-21 14:02:00,
2013-02-21 09:11:00,22.0,20.0,30.26,NW,304,2.0,8.0,93,-99.99,,,-99.99,,2013-02-21 14:11:00,
2013-02-21 09:22:00,22.0,20.0,30.26,NNW,333,2.0,8.0,93,-99.99,,,-99.99,,2013-02-21 14:22:00,
2013-02-21 09:32:00,22.0,20.0,30.26,NNW,345,3.0,8.0,93,-99.99,,,-99.99,,2013-02-21 14:32:00,
2013-02-21 09:42:00,22.0,20.0,30.27,NNW,332,4.0,9.0,92,-99.99,,,-99.99,,2013-02-21 14:42:00,
2013-02-21 09:52:00,22.0,20.0,30.27,NNW,332,4.0,9.0,92,-99.99,,,-99.99,,2013-02-21 14:52:00,
2013-02-21 10:02:00,23.0,21.0,30.27,NW,325,6.0,12.0,91,-99.99,,,-99.99,,2013-02-21 15:02:00,
2013-02-21 10:12:00,23.0,21.0,30.27,NW,325,6.0,12.0,91,-99.99,,,-99.99,,2013-02-21 15:12:00,
2013-02-21 10:21:00,23.0,21.0,30.27,North,354,4.0,8.0,91,-99.99,,,-99.99,,2013-02-21 15:21:00,
2013-02-21 10:32:00,22.0,20.0,30.26,North,0,2.0,9.0,91,-99.99,,,-99.99,,2013-02-21 15:32:00,
2013-02-21 10:42:00,22.0,20.0,30.26,North,0,2.0,9.0,91,-99.99,,,-99.99,,2013-02-21 15:42:00,
2013-02-21 10:52:00,23.0,22.0,30.26,North,359,4.0,9.0,94,-99.99,,,-99.99,,2013-02-21 15:52:00,
2013-02-21 11:01:00,22.0,21.0,30.26,NNW,347,5.0,9.0,94,-99.99,,,-99.99,,2013-02-21 16:01:00,
2013-02-21 11:12:00,23.0,22.0,30.26,North,4,2.0,9.0,95,-99.99,,,-99.99,,2013-02-21 16:12:00,
2013-02-21 11:22:00,23.0,22.0,30.26,North,4,2.0,9.0,95,-99.99,,,-99.99,,2013-02-21 16:22:00,
2013-02-21 11:32:00,25.0,23.0,30.27,NNW,338,3.0,11.0,93,-99.99,,,-99.99,,2013-02-21 16:32:00,
2013-02-21 11:42:00,24.0,22.0,30.27,NNE,21,4.0,10.0,91,-99.99,,,-99.99,,2013-02-21 16:42:00,
2013-02-21 11:52:00,24.0,22.0,30.27,NNE,21,4.0,10.0,91,-99.99,,,-99.99,,2013-02-21 16:52:00,
2013-02-21 12:01:00,24.0,21.0,30.27,North,11,4.0,8.0,88,-99.99,,,-99.99,,2013-02-21 17:01:00,
2013-02-21 12:11:00,25.0,22.0,30.28,North,6,3.0,14.0,87,-99.99,,,-99.99,,2013-02-21 17:11:00,
2013-02-21 12:21:00,25.0,22.0,30.28,North,6,3.0,14.0,87,-99.99,,,-99.99,,2013-02-21 17:21:00,
2013-02-21 12:32:00,25.0,21.0,30.27,NNE,14,4.0,12.0,84,-99.99,,,-99.99,,2013-02-21 17:32:00,
2013-02-21 12:42:00,25.0,21.0,30.27,NNE,14,4.0,12.0,84,-99.99,,,-99.99,,2013-02-21 17:42:00,
2013-02-21 12:52:00,24.0,19.0,30.27,North,353,7.0,17.0,81,-99.99,,,-99.99,,2013-02-21 17:52:00,
2013-02-21 13:02:00,25.0,20.0,30.27,NNE,21,3.0,8.0,80,-99.99,,,-99.99,,2013-02-21 18:02:00,
2013-02-21 13:12:00,25.0,20.0,30.27,NNE,21,3.0,8.0,80,-99.99,,,-99.99,,2013-02-21 18:12:00,
2013-02-21 13:22:00,25.0,20.0,30.27,NNW,346,4.0,9.0,80,-99.99,,,-99.99,,2013-02-21 18:22:00,
2013-02-21 13:32:00,24.0,19.0,30.26,NNW,346,4.0,14.0,80,-99.99,,,-99.99,,2013-02-21 18:32:00,
2013-02-21 13:42:00,24.0,19.0,30.26,NNW,346,4.0,14.0,80,-99.99,,,-99.99,,2013-02-21 18:42:00,
2013-02-21 13:52:00,24.0,19.0,30.27,North,0,5.0,10.0,80,-99.99,,,-99.99,,2013-02-21 18:52:00,
2013-02-21 14:01:00,24.0,19.0,30.27,North,359,6.0,12.0,81,-99.99,,,-99.99,,2013-02-21 19:01:00,
2013-02-21 14:12:00,24.0,19.0,30.27,North,359,6.0,12.0,81,-99.99,,,-99.99,,2013-02-21 19:12:00,
2013-02-21 14:21:00,24.0,18.0,30.27,NNE,18,3.0,9.0,79,-99.99,,,-99.99,,2013-02-21 19:21:00,
2013-02-21 14:32:00,25.0,19.0,30.27,North,4,4.0,10.0,78,-99.99,,,-99.99,,2013-02-21 19:32:00,
2013-02-21 14:42:00,25.0,19.0,30.27,North,4,4.0,10.0,78,-99.99,,,-99.99,,2013-02-21 19:42:00,
2013-02-21 14:52:00,24.0,19.0,30.28,North,10,4.0,9.0,80,-99.99,,,-99.99,,2013-02-21 19:52:00,
2013-02-21 15:01:00,25.0,20.0,30.27,North,350,4.0,11.0,80,-99.99,,,-99.99,,2013-02-21 20:01:00,
2013-02-21 15:11:00,24.0,18.0,30.26,North,0,3.0,10.0,78,-99.99,,,-99.99,,2013-02-21 20:11:00,
2013-02-21 15:21:00,24.0,18.0,30.26,North,0,3.0,10.0,78,-99.99,,,-99.99,,2013-02-21 20:21:00,
2013-02-21 15:32:00,26.0,20.0,30.26,NW,323,1.0,5.0,78,-99.99,,,-99.99,,2013-02-21 20:32:00,
2013-02-21 15:42:00,26.0,20.0,30.26,NW,323,1.0,5.0,78,-99.99,,,-99.99,,2013-02-21 20:42:00,
2013-02-21 15:53:00,25.0,19.0,30.26,NNE,25,2.0,10.0,77,-99.99,,,-99.99,,2013-02-21 20:53:00,
2013-02-21 16:02:00,24.0,18.0,30.26,NNE,23,2.0,11.0,77,-99.99,,,-99.99,,2013-02-21 21:02:00,
2013-02-21 16:12:00,25.0,19.0,30.26,North,352,4.0,10.0,77,-99.99,,,-99.99,,2013-02-21 21:12:00,
2013-02-21 16:22:00,25.0,19.0,30.26,North,352,4.0,10.0,77,-99.99,,,-99.99,,2013-02-21 21:22:00,
2013-02-21 16:32:00,25.0,19.0,30.24,North,4,4.0,8.0,77,-99.99,,,-99.99,,2013-02-21 21:32:00,
2013-02-21 16:42:00,25.0,19.0,30.25,NE,42,2.0,8.0,77,-99.99,,,-99.99,,2013-02-21 21:42:00,
2013-02-21 16:52:00,25.0,19.0,30.25,NE,42,2.0,8.0,77,-99.99,,,-99.99,,2013-02-21 21:52:00,
2013-02-21 17:01:00,25.0,19.0,30.26,NNE,31,1.0,5.0,76,-99.99,,,-99.99,,2013-02-21 22:01:00,
2013-02-21 17:11:00,25.0,19.0,30.26,NNE,31,1.0,5.0,76,-99.99,,,-99.99,,2013-02-21 22:11:00,
2013-02-21 17:21:00,25.0,18.0,30.27,NNW,329,2.0,7.0,75,-99.99,,,-99.99,,2013-02-21 22:21:00,
2013-02-21 17:32:00,24.0,18.0,30.28,NNW,335,1.0,6.0,76,-99.99,,,-99.99,,2013-02-21 22:32:00,
2013-02-21 17:42:00,24.0,18.0,30.28,NNE,32,1.0,6.0,77,-99.99,,,-99.99,,2013-02-21 22:42:00,
2013-02-21 17:52:00,24.0,18.0,30.28,NNE,32,1.0,6.0,77,-99.99,,,-99.99,,2013-02-21 22:52:00,
2013-02-21 18:01:00,24.0,18.0,30.30,North,0,0.0,0.0,78,-99.99,,,-99.99,,2013-02-21 23:01:00,
2013-02-21 18:11:00,24.0,18.0,30.30,North,0,0.0,0.0,78,-99.99,,,-99.99,,2013-02-21 23:11:00,
2013-02-21 18:21:00,24.0,18.0,30.30,NNE,15,0.0,4.0,79,-99.99,,,-99.99,,2013-02-21 23:21:00,
2013-02-21 18:32:00,24.0,18.0,30.30,North,8,0.0,1.0,79,-99.99,,,-99.99,,2013-02-21 23:32:00,
2013-02-21 18:42:00,24.0,18.0,30.30,North,8,0.0,1.0,79,-99.99,,,-99.99,,2013-02-21 23:42:00,
2013-02-21 18:52:00,24.0,19.0,30.30,North,0,0.0,0.0,80,-99.99,,,-99.99,,2013-02-21 23:52:00,
2013-02-21 19:01:00,23.0,18.0,30.31,North,0,0.0,0.0,81,-99.99,,,-99.99,,2013-02-22 00:01:00,
2013-02-21 19:11:00,23.0,18.0,30.31,North,0,0.0,0.0,81,-99.99,,,-99.99,,2013-02-22 00:11:00,
2013-02-21 19:22:00,23.0,18.0,30.31,North,0,0.0,0.0,81,-99.99,,,-99.99,,2013-02-22 00:22:00,
2013-02-21 19:32:00,23.0,18.0,30.31,North,0,0.0,0.0,82,-99.99,,,-99.99,,2013-02-22 00:32:00,
2013-02-21 19:42:00,23.0,18.0,30.31,North,0,0.0,0.0,82,-99.99,,,-99.99,,2013-02-22 00:42:00,
2013-02-21 19:52:00,22.0,18.0,30.30,North,0,0.0,0.0,83,-99.99,,,-99.99,,2013-02-22 00:52:00,
2013-02-21 20:01:00,23.0,19.0,30.32,North,0,0.0,0.0,83,-99.99,,,-99.99,,2013-02-22 01:01:00,
2013-02-21 20:11:00,23.0,19.0,30.32,North,0,0.0,0.0,83,-99.99,,,-99.99,,2013-02-22 01:11:00,
2013-02-21 20:21:00,22.0,18.0,30.32,North,0,0.0,0.0,85,-99.99,,,-99.99,,2013-02-22 01:21:00,
2013-02-21 20:32:00,22.0,18.0,30.31,North,0,0.0,0.0,85,-99.99,,,-99.99,,2013-02-22 01:32:00,
2013-02-21 20:42:00,22.0,18.0,30.31,North,0,0.0,0.0,86,-99.99,,,-99.99,,2013-02-22 01:42:00,
2013-02-21 20:52:00,22.0,18.0,30.31,North,0,0.0,0.0,86,-99.99,,,-99.99,,2013-02-22 01:52:00,
2013-02-21 21:02:00,22.0,18.0,30.29,North,0,0.0,0.0,86,-99.99,,,-99.99,,2013-02-22 02:02:00,
2013-02-21 21:11:00,22.0,19.0,30.29,North,0,0.0,0.0,87,-99.99,,,-99.99,,2013-02-22 02:11:00,
2013-02-21 21:21:00,22.0,19.0,30.29,North,0,0.0,0.0,87,-99.99,,,-99.99,,2013-02-22 02:21:00,
2013-02-21 21:32:00,21.0,18.0,30.28,NNE,31,1.0,5.0,87,-99.99,,,-99.99,,2013-02-22 02:32:00,
2013-02-21 21:42:00,22.0,19.0,30.27,NNE,21,0.0,1.0,87,-99.99,,,-99.99,,2013-02-22 02:42:00,
2013-02-21 21:52:00,22.0,19.0,30.27,NNE,21,0.0,1.0,87,-99.99,,,-99.99,,2013-02-22 02:52:00,
2013-02-21 22:01:00,22.0,19.0,30.27,ENE,65,0.0,4.0,87,-99.99,,,-99.99,,2013-02-22 03:01:00,
2013-02-21 22:11:00,22.0,19.0,30.27,North,0,0.0,0.0,87,-99.99,,,-99.99,,2013-02-22 03:11:00,
2013-02-21 22:21:00,22.0,19.0,30.27,North,0,0.0,0.0,87,-99.99,,,-99.99,,2013-02-22 03:21:00,
2013-02-21 22:32:00,22.0,18.0,30.26,NE,55,0.0,3.0,86,-99.99,,,-99.99,,2013-02-22 03:32:00,
2013-02-21 22:42:00,22.0,18.0,30.26,NE,55,0.0,3.0,86,-99.99,,,-99.99,,2013-02-22 03:42:00,
2013-02-21 22:51:00,22.0,18.0,30.26,NNE,27,0.0,4.0,86,-99.99,,,-99.99,,2013-02-22 03:51:00,
2013-02-21 23:02:00,22.0,18.0,30.25,NE,53,3.0,7.0,85,-99.99,,,-99.99,,2013-02-22 04:02:00,
2013-02-21 23:11:00,22.0,18.0,30.24,East,79,3.0,7.0,86,-99.99,,,-99.99,,2013-02-22 04:11:00,
2013-02-21 23:21:00,22.0,18.0,30.24,East,79,3.0,7.0,86,-99.99,,,-99.99,,2013-02-22 04:21:00,
2013-02-21 23:32:00,22.0,18.0,30.24,East,101,2.0,5.0,85,-99.99,,,-99.99,,2013-02-22 04:32:00,
2013-02-21 23:42:00,22.0,18.0,30.24,ESE,104,2.0,6.0,86,-99.99,,,-99.99,,2013-02-22 04:42:00,
2013-02-21 23:52:00,22.0,18.0,30.24,ESE,104,2.0,6.0,86,-99.99,,,-99.99,,2013-02-22 04:52:00,